Mount Holly, NJ

12:36 AM EDT on April 27, 2017 (GMT -0400)
South Jersey Regional

Weather History for KVAY - April, 2014

Change the Weather History Date:

Sunday, April 27, 2014

  Actual Average (KPNE) Record (KPNE)
Temperature  
Mean Temperature 53 °F -  
Max Temperature 61 °F 66 °F 81 °F (2011)
Min Temperature 46 °F 44 °F 36 °F (2001)
Degree Days  
Heating Degree Days 12    
Growing Degree Days 3 (Base 50)    
Moisture  
Dew Point 35 °F    
Average Humidity 53    
Maximum Humidity 86    
Minimum Humidity 36    
Precipitation  
Precipitation 0.00 in - - ()
Sea Level Pressure  
Sea Level Pressure 30.01 in    
Wind  
Wind Speed 7 mph (NNW)    
Max Wind Speed 15 mph    
Max Gust Speed 23 mph    
Visibility 10 miles    
Events      
Averages and records for this station are not official NWS values.
T = Trace of Precipitation, MM = Missing Value Source: NWS Daily Summary

Daily Weather History Graph

Daily Weather History Graph

Search for Another Location

Airport or City:

Trip Planner

Search our weather history database for the weather conditions in past years. The results will help you decide how hot, cold, wet, or windy it might be!

Date:

Astronomy

Apr. 27, 2014 Rise Set
Actual Time 6:04 AM EDT 7:49 PM EDT
Civil Twilight 5:35 AM EDT 8:18 PM EDT
Nautical Twilight 5:00 AM EDT 8:54 PM EDT
Astronomical Twilight 4:23 AM EDT 9:31 PM EDT
Moon 5:03 AM EDT 6:21 PM EDT
Length of Visible Light 14h 43m
Length of Day
13h 45m
Waning Crescent, 3% of the Moon is Illuminated
Apr 27
Waning Crescent
Apr 29
New
May 6
First Quarter
May 14
Full
May 21
Last Quarter

Hourly Weather History & Observations

Time (EDT) Temp. Windchill Dew Point Humidity Pressure Visibility Wind Dir Wind Speed Gust Speed Precip Events Conditions
12:54 AM 48.0 °F - 44.1 °F 86% 29.91 in 8.0 mi Calm Calm - N/A   Mostly Cloudy
1:54 AM 48.0 °F - 43.0 °F 83% 29.91 in 10.0 mi NNW 5.8 mph - N/A   Clear
2:54 AM 48.0 °F - 36.0 °F 63% 29.91 in 10.0 mi NW 4.6 mph - N/A   Clear
3:54 AM 46.9 °F - 36.0 °F 66% 29.92 in 10.0 mi NW 4.6 mph - N/A   Clear
4:54 AM 46.0 °F 43.1 °F 35.1 °F 66% 29.94 in 10.0 mi NNW 5.8 mph - N/A   Clear
5:54 AM 46.0 °F 43.9 °F 34.0 °F 63% 29.96 in 10.0 mi NW 4.6 mph - N/A   Clear
6:54 AM 46.9 °F - 34.0 °F 61% 29.99 in 10.0 mi NW 5.8 mph - N/A   Clear
7:54 AM 48.9 °F - 34.0 °F 56% 30.02 in 10.0 mi NW 12.7 mph 19.6 mph N/A   Clear
8:54 AM 51.1 °F - 34.0 °F 52% 30.02 in 10.0 mi NNW 11.5 mph 17.3 mph N/A   Clear
9:54 AM 52.0 °F - 34.0 °F 50% 30.04 in 10.0 mi WNW 9.2 mph - N/A   Clear
10:54 AM 54.0 °F - 34.0 °F 47% 30.03 in 10.0 mi WNW 12.7 mph 18.4 mph N/A   Clear
11:54 AM 55.0 °F - 35.1 °F 47% 30.03 in 10.0 mi NNW 15.0 mph 23.0 mph N/A   Scattered Clouds
12:54 PM 57.0 °F - 35.1 °F 44% 30.02 in 10.0 mi WNW 9.2 mph 21.9 mph N/A   Scattered Clouds
1:54 PM 57.9 °F - 35.1 °F 42% 30.01 in 10.0 mi NNW 12.7 mph - N/A   Scattered Clouds
2:54 PM 59.0 °F - 35.1 °F 41% 30.01 in 10.0 mi North 13.8 mph 19.6 mph N/A   Partly Cloudy
4:54 PM 60.1 °F - 34.0 °F 38% 30.00 in 10.0 mi NW 12.7 mph - N/A   Partly Cloudy
5:54 PM 60.1 °F - 33.1 °F 36% 30.02 in 10.0 mi North 8.1 mph - N/A   Partly Cloudy
6:54 PM 59.0 °F - 33.1 °F 38% 30.04 in 10.0 mi North 11.5 mph - N/A   Partly Cloudy
7:54 PM 54.0 °F - 34.0 °F 47% 30.06 in 10.0 mi North 6.9 mph - N/A   Clear
8:54 PM 52.0 °F - 33.1 °F 49% 30.09 in 10.0 mi NNW 4.6 mph - N/A   Clear
9:54 PM 52.0 °F - 33.1 °F 49% 30.12 in 10.0 mi NNE 6.9 mph - N/A   Clear
10:54 PM 50.0 °F - 33.1 °F 52% 30.13 in 10.0 mi North 6.9 mph - N/A   Clear
11:54 PM 48.0 °F - 32.0 °F 54% 30.13 in 10.0 mi NNW 3.5 mph - N/A   Clear